When you browse on this site, cookies collect data to enhance your experience and personalize the content and advertising you see.
Visit our Privacy Policy to learn more. By continuing to use the site, you agree to this use of cookies and data.
  • En España
  • Lista de países
  • Para 7 días
  • Temperatura del agua
  • Mapa Satelital
  • El tiempo en el mapa
  • Informadores
  • user-avatar
    Iniciar sesión

    Tiempo cada hora Biskira

    Hoy, 19 Diciembre, Miércoles

    Tiempo Temperatura Precipitaciones Viento Presión Humedad
    00:00 +12°C° 0 mm 1 mps 761 mmHg 53%
    01:00 +12°C° 0 mm 1 mps 761 mmHg 55%
    02:00 +11°C° 0 mm 1 mps 760 mmHg 56%
    03:00 +11°C° 0 mm 1 mps 760 mmHg 57%
    04:00 +11°C° 0 mm 1 mps 760 mmHg 58%
    05:00 +11°C° 0 mm 1 mps 760 mmHg 59%
    06:00 +10°C° 0 mm 1 mps 760 mmHg 60%
    07:00 +12°C° 0 mm 1 mps 760 mmHg 56%
    08:00 +13°C° 0 mm 1 mps 760 mmHg 51%
    09:00 +15°C° 0 mm 1 mps 760 mmHg 46%
    10:00 +16°C° 0 mm 1 mps 760 mmHg 44%
    11:00 +16°C° 0 mm 1 mps 760 mmHg 42%
    12:00 +18°C° 0 mm 1 mps 759 mmHg 40%
    13:00 +18°C° 0 mm 1 mps 759 mmHg 40%
    14:00 +19°C° 0 mm 1 mps 758 mmHg 40%
    15:00 +19°C° 0 mm 1 mps 758 mmHg 40%
    16:00 +18°C° 0 mm 1 mps 758 mmHg 44%
    17:00 +15°C° 0 mm 0 mps 758 mmHg 49%
    18:00 +14°C° 0 mm 0 mps 758 mmHg 53%
    19:00 +13°C° 0 mm 0 mps 758 mmHg 54%
    20:00 +13°C° 0 mm 0 mps 759 mmHg 54%
    21:00 +13°C° 0 mm 0 mps 759 mmHg 55%
    22:00 +12°C° 0 mm 0 mps 759 mmHg 56%
    23:00 +12°C° 0 mm 0 mps 759 mmHg 57%

    Mañana, 20 Diciembre, Jueves

    Tiempo Temperatura Precipitaciones Viento Presión Humedad
    00:00 +11°C° 0 mm 0 mps 759 mmHg 57%
    01:00 +11°C° 0 mm 0 mps 759 mmHg 58%
    02:00 +11°C° 0 mm 0 mps 759 mmHg 58%
    03:00 +11°C° 0 mm 0 mps 759 mmHg 59%
    04:00 +11°C° 0 mm 0 mps 759 mmHg 59%
    05:00 +10°C° 0 mm 0 mps 759 mmHg 59%
    06:00 +10°C° 0 mm 0 mps 759 mmHg 60%
    07:00 +12°C° 0 mm 0 mps 759 mmHg 54%
    08:00 +14°C° 0 mm 0 mps 759 mmHg 48%
    09:00 +16°C° 0 mm 0 mps 760 mmHg 43%
    10:00 +18°C° 0 mm 1 mps 759 mmHg 41%
    11:00 +19°C° 0 mm 1 mps 759 mmHg 39%
    12:00 +20°C° 0 mm 1 mps 759 mmHg 38%
    13:00 +20°C° 0 mm 2 mps 759 mmHg 38%
    14:00 +20°C° 0 mm 2 mps 758 mmHg 38%
    15:00 +20°C° 0 mm 2 mps 758 mmHg 38%
    16:00 +19°C° 0 mm 2 mps 759 mmHg 42%
    17:00 +18°C° 0 mm 2 mps 759 mmHg 46%
    18:00 +18°C° 0 mm 1 mps 759 mmHg 50%
    19:00 +17°C° 0 mm 2 mps 760 mmHg 51%
    20:00 +16°C° 0 mm 2 mps 760 mmHg 51%
    21:00 +16°C° 0 mm 2 mps 761 mmHg 51%
    22:00 +16°C° 0 mm 2 mps 761 mmHg 52%
    23:00 +16°C° 0 mm 2 mps 761 mmHg 53%

    Pasado mañana, 21 Diciembre, Viernes

    Tiempo Temperatura Precipitaciones Viento Presión Humedad
    00:00 +16°C° 0 mm 2 mps 761 mmHg 54%
    01:00 +15°C° 0 mm 2 mps 761 mmHg 56%
    02:00 +15°C° 0 mm 2 mps 761 mmHg 58%
    03:00 +14°C° 0 mm 2 mps 761 mmHg 60%
    04:00 +14°C° 0 mm 2 mps 761 mmHg 62%
    05:00 +14°C° 0 mm 2 mps 762 mmHg 63%
    06:00 +13°C° 0 mm 2 mps 762 mmHg 65%
    07:00 +14°C° 0 mm 2 mps 763 mmHg 61%
    08:00 +16°C° 0 mm 1 mps 763 mmHg 57%
    09:00 +18°C° 0 mm 1 mps 763 mmHg 53%
    10:00 +18°C° 0 mm 1 mps 763 mmHg 49%
    11:00 +19°C° 0 mm 1 mps 763 mmHg 46%
    12:00 +19°C° 0 mm 2 mps 763 mmHg 42%
    13:00 +20°C° 0 mm 1 mps 763 mmHg 41%
    14:00 +20°C° 0 mm 1 mps 763 mmHg 40%
    15:00 +20°C° 0 mm 1 mps 762 mmHg 39%
    16:00 +19°C° 0 mm 1 mps 763 mmHg 44%
    17:00 +18°C° 0 mm 1 mps 763 mmHg 48%
    18:00 +16°C° 0 mm 1 mps 763 mmHg 52%
    19:00 +14°C° 0 mm 0 mps 764 mmHg 53%
    20:00 +14°C° 0 mm 0 mps 764 mmHg 55%
    21:00 +13°C° 0 mm 0 mps 764 mmHg 57%
    22:00 +13°C° 0 mm 0 mps 764 mmHg 58%
    23:00 +13°C° 0 mm 0 mps 764 mmHg 59%

    22 Diciembre, Sábado

    Tiempo Temperatura Precipitaciones Viento Presión Humedad
    00:00 +13°C° 0 mm 1 mps 764 mmHg 59%
    01:00 +12°C° 0 mm 0 mps 764 mmHg 61%
    02:00 +12°C° 0 mm 0 mps 764 mmHg 62%
    03:00 +11°C° 0 mm 0 mps 764 mmHg 63%
    04:00 +11°C° 0 mm 0 mps 764 mmHg 64%
    05:00 +11°C° 0 mm 0 mps 764 mmHg 65%
    06:00 +10°C° 0 mm 0 mps 764 mmHg 66%
    07:00 +12°C° 0 mm 0 mps 764 mmHg 60%
    08:00 +13°C° 0 mm 0 mps 764 mmHg 54%
    09:00 +16°C° 0 mm 1 mps 765 mmHg 48%
    10:00 +18°C° 0 mm 1 mps 764 mmHg 45%
    11:00 +18°C° 0 mm 1 mps 764 mmHg 43%
    12:00 +18°C° 0 mm 2 mps 763 mmHg 40%
    13:00 +18°C° 0 mm 2 mps 763 mmHg 40%
    14:00 +19°C° 0 mm 2 mps 763 mmHg 40%
    15:00 +19°C° 0 mm 2 mps 762 mmHg 39%
    16:00 +18°C° 0 mm 2 mps 762 mmHg 44%
    17:00 +16°C° 0 mm 1 mps 763 mmHg 49%
    18:00 +15°C° 0 mm 1 mps 763 mmHg 53%
    19:00 +15°C° 0 mm 1 mps 763 mmHg 55%
    20:00 +14°C° 0 mm 1 mps 763 mmHg 57%
    21:00 +14°C° 0 mm 1 mps 763 mmHg 59%
    22:00 +14°C° 0 mm 1 mps 763 mmHg 61%
    23:00 +13°C° 0 mm 1 mps 763 mmHg 62%

    23 Diciembre, Domingo

    Tiempo Temperatura Precipitaciones Viento Presión Humedad
    00:00 +13°C° 0 mm 1 mps 763 mmHg 64%
    01:00 +13°C° 0 mm 1 mps 762 mmHg 64%
    02:00 +12°C° 0 mm 1 mps 762 mmHg 65%
    03:00 +12°C° 0 mm 1 mps 762 mmHg 66%
    04:00 +12°C° 0 mm 1 mps 762 mmHg 65%
    05:00 +12°C° 0 mm 1 mps 762 mmHg 65%
    06:00 +11°C° 0 mm 1 mps 762 mmHg 65%
    07:00 +13°C° 0 mm 1 mps 762 mmHg 58%
    08:00 +15°C° 0 mm 1 mps 763 mmHg 52%
    09:00 +16°C° 0 mm 1 mps 763 mmHg 45%
    10:00 +18°C° 0 mm 1 mps 763 mmHg 42%
    11:00 +19°C° 0 mm 1 mps 762 mmHg 39%
    12:00 +20°C° 0 mm 1 mps 762 mmHg 36%
    13:00 +20°C° 0 mm 1 mps 762 mmHg 35%
    14:00 +21°C° 0 mm 1 mps 761 mmHg 34%
    15:00 +21°C° 0 mm 1 mps 761 mmHg 33%
    16:00 +19°C° 0 mm 1 mps 761 mmHg 38%
    17:00 +18°C° 0 mm 1 mps 761 mmHg 43%
    18:00 +14°C° 0 mm 0 mps 761 mmHg 48%
    19:00 +14°C° 0 mm 0 mps 761 mmHg 48%
    20:00 +14°C° 0 mm 0 mps 762 mmHg 48%
    21:00 +13°C° 0 mm 0 mps 762 mmHg 49%
    22:00 +13°C° 0 mm 0 mps 762 mmHg 49%
    23:00 +12°C° 0 mm 0 mps 762 mmHg 50%

    24 Diciembre, Lunes

    Tiempo Temperatura Precipitaciones Viento Presión Humedad
    00:00 +12°C° 0 mm 0 mps 761 mmHg 51%
    01:00 +12°C° 0 mm 0 mps 761 mmHg 51%
    02:00 +11°C° 0 mm 0 mps 761 mmHg 52%
    03:00 +11°C° 0 mm 0 mps 761 mmHg 52%
    04:00 +11°C° 0 mm 0 mps 761 mmHg 52%
    05:00 +11°C° 0 mm 0 mps 761 mmHg 53%
    06:00 +10°C° 0 mm 0 mps 761 mmHg 53%
    07:00 +12°C° 0 mm 0 mps 761 mmHg 48%
    08:00 +14°C° 0 mm 0 mps 762 mmHg 43%
    09:00 +16°C° 0 mm 0 mps 762 mmHg 37%
    10:00 +17°C° 0 mm 0 mps 761 mmHg 35%
    11:00 +20°C° 0 mm 1 mps 761 mmHg 32%
    12:00 +21°C° 0 mm 1 mps 761 mmHg 30%
    13:00 +21°C° 0 mm 1 mps 760 mmHg 29%
    14:00 +21°C° 0 mm 1 mps 760 mmHg 29%
    15:00 +21°C° 0 mm 1 mps 760 mmHg 29%
    16:00 +20°C° 0 mm 1 mps 760 mmHg 34%
    17:00 +16°C° 0 mm 0 mps 760 mmHg 39%
    18:00 +14°C° 0 mm 0 mps 760 mmHg 43%
    19:00 +14°C° 0 mm 0 mps 761 mmHg 44%
    20:00 +14°C° 0 mm 0 mps 761 mmHg 44%
    21:00 +13°C° 0 mm 0 mps 761 mmHg 45%
    22:00 +13°C° 0 mm 0 mps 761 mmHg 45%
    23:00 +12°C° 0 mm 0 mps 761 mmHg 45%
    Mostrar más